TimeCST,TemperatureF,Dew PointF,Humidity,Sea Level PressureIn,VisibilityMPH,Wind Direction,Wind SpeedMPH,Gust SpeedMPH,PrecipitationIn,Events,Conditions,WindDirDegrees,DateUTC
12:15 AM,19.4,14.0,80,30.32,10.0,NW,5.8,-,N/A,,Clear,310,2013-02-15 06:15:00
12:35 AM,15.8,12.2,86,30.33,10.0,NW,6.9,-,N/A,,Clear,310,2013-02-15 06:35:00
12:55 AM,17.6,15.8,93,30.33,10.0,NW,9.2,-,N/A,,Mostly Cloudy,320,2013-02-15 06:55:00
1:15 AM,19.4,14.0,80,30.33,10.0,NNW,9.2,-,N/A,,Overcast,340,2013-02-15 07:15:00
1:35 AM,19.4,15.8,86,30.32,10.0,NNW,10.4,-,N/A,,Partly Cloudy,340,2013-02-15 07:35:00
1:55 AM,19.4,15.8,86,30.32,10.0,NNW,6.9,-,N/A,,Clear,330,2013-02-15 07:55:00
2:15 AM,19.4,15.8,86,30.32,10.0,NNW,4.6,-,N/A,,Clear,340,2013-02-15 08:15:00
2:35 AM,17.6,12.2,79,30.33,10.0,WNW,5.8,-,N/A,,Clear,300,2013-02-15 08:35:00
2:55 AM,15.8,12.2,86,30.33,10.0,NW,4.6,-,N/A,,Clear,310,2013-02-15 08:55:00
3:15 AM,15.8,10.4,79,30.34,10.0,WNW,6.9,-,N/A,,Clear,290,2013-02-15 09:15:00
3:35 AM,14.0,10.4,86,30.33,10.0,West,6.9,-,N/A,,Clear,270,2013-02-15 09:35:00
3:55 AM,15.8,12.2,86,30.32,10.0,West,5.8,-,N/A,,Clear,280,2013-02-15 09:55:00
4:15 AM,14.0,10.4,86,30.32,10.0,West,6.9,-,N/A,,Clear,270,2013-02-15 10:15:00
4:35 AM,15.8,12.2,86,30.32,10.0,WSW,4.6,-,N/A,,Clear,250,2013-02-15 10:35:00
4:55 AM,17.6,14.0,86,30.33,10.0,WSW,5.8,-,N/A,,Clear,250,2013-02-15 10:55:00
5:15 AM,15.8,12.2,86,30.33,10.0,WSW,4.6,-,N/A,,Clear,250,2013-02-15 11:15:00
5:35 AM,15.8,12.2,86,30.33,10.0,WSW,5.8,-,N/A,,Clear,240,2013-02-15 11:35:00
5:55 AM,15.8,12.2,86,30.33,10.0,SW,5.8,-,N/A,,Clear,230,2013-02-15 11:55:00
6:15 AM,15.8,12.2,86,30.32,10.0,SW,8.1,-,N/A,,Clear,230,2013-02-15 12:15:00
6:35 AM,15.8,12.2,86,30.32,10.0,SW,8.1,-,N/A,,Clear,230,2013-02-15 12:35:00
6:55 AM,15.8,14.0,93,30.33,10.0,WSW,4.6,-,N/A,,Clear,240,2013-02-15 12:55:00
7:15 AM,15.8,12.2,86,30.33,10.0,WSW,5.8,-,N/A,,Clear,240,2013-02-15 13:15:00
7:35 AM,15.8,12.2,86,30.33,10.0,West,5.8,-,N/A,,Clear,260,2013-02-15 13:35:00
7:55 AM,17.6,14.0,86,30.34,10.0,WSW,3.5,-,N/A,,Clear,250,2013-02-15 13:55:00
8:15 AM,19.4,15.8,86,30.34,10.0,WSW,5.8,-,N/A,,Clear,250,2013-02-15 14:15:00
8:35 AM,19.4,15.8,86,30.34,10.0,SW,5.8,-,N/A,,Clear,230,2013-02-15 14:35:00
8:55 AM,21.2,15.8,80,30.34,10.0,SW,8.1,-,N/A,,Clear,230,2013-02-15 14:55:00
9:15 AM,21.2,15.8,80,30.34,10.0,SW,8.1,-,N/A,,Clear,230,2013-02-15 15:15:00
9:35 AM,23.0,19.4,86,30.34,10.0,WSW,11.5,-,N/A,,Clear,240,2013-02-15 15:35:00
9:55 AM,24.8,19.4,80,30.33,10.0,WSW,10.4,-,N/A,,Clear,250,2013-02-15 15:55:00
10:15 AM,28.4,19.4,69,30.32,10.0,WSW,12.7,-,N/A,,Clear,250,2013-02-15 16:15:00
10:35 AM,28.4,19.4,69,30.32,10.0,West,11.5,-,N/A,,Clear,260,2013-02-15 16:35:00
10:55 AM,30.2,19.4,64,30.32,10.0,West,13.8,-,N/A,,Clear,280,2013-02-15 16:55:00
11:15 AM,32.0,17.6,55,30.32,10.0,West,11.5,-,N/A,,Clear,270,2013-02-15 17:15:00
11:55 AM,33.8,14.0,44,30.30,10.0,West,17.3,21.9,N/A,,Scattered Clouds,270,2013-02-15 17:55:00
12:15 PM,33.8,12.2,41,30.30,10.0,West,13.8,24.2,N/A,,Mostly Cloudy,270,2013-02-15 18:15:00
12:35 PM,33.8,10.4,38,30.29,10.0,West,16.1,24.2,N/A,,Overcast,280,2013-02-15 18:35:00
12:55 PM,33.8,14.0,44,30.29,10.0,West,17.3,23.0,N/A,,Overcast,280,2013-02-15 18:55:00
1:15 PM,33.8,12.2,41,30.28,10.0,WNW,18.4,26.5,N/A,,Overcast,300,2013-02-15 19:15:00
1:35 PM,33.8,10.4,38,30.27,10.0,WNW,21.9,25.3,N/A,,Overcast,300,2013-02-15 19:35:00
1:55 PM,35.6,6.8,30,30.27,10.0,WNW,16.1,28.8,N/A,,Mostly Cloudy,300,2013-02-15 19:55:00
2:15 PM,35.6,8.6,33,30.27,10.0,NW,27.6,35.7,N/A,,Mostly Cloudy,320,2013-02-15 20:15:00
2:35 PM,35.6,6.8,30,30.27,10.0,NW,25.3,33.4,N/A,,Mostly Cloudy,310,2013-02-15 20:35:00
2:55 PM,33.8,6.8,32,30.27,10.0,NW,25.3,34.5,N/A,,Scattered Clouds,320,2013-02-15 20:55:00
3:15 PM,33.8,8.6,35,30.28,10.0,NW,26.5,35.7,N/A,,Partly Cloudy,320,2013-02-15 21:15:00
3:35 PM,33.8,8.6,35,30.29,10.0,NW,21.9,29.9,N/A,,Scattered Clouds,310,2013-02-15 21:35:00
3:55 PM,32.0,8.6,38,30.29,10.0,NW,20.7,29.9,N/A,,Mostly Cloudy,310,2013-02-15 21:55:00
4:15 PM,30.2,8.6,40,30.30,10.0,NW,23.0,31.1,N/A,,Mostly Cloudy,320,2013-02-15 22:15:00
4:35 PM,32.0,12.2,44,30.30,10.0,NNW,21.9,28.8,N/A,,Overcast,330,2013-02-15 22:35:00
4:55 PM,30.2,10.4,44,30.31,10.0,NNW,26.5,32.2,N/A,,Overcast,340,2013-02-15 22:55:00
5:15 PM,30.2,10.4,44,30.32,10.0,NNW,21.9,28.8,N/A,,Overcast,340,2013-02-15 23:15:00
5:35 PM,28.4,10.4,47,30.32,10.0,NNW,20.7,26.5,N/A,,Scattered Clouds,340,2013-02-15 23:35:00
5:55 PM,28.4,8.6,43,30.33,10.0,NNW,20.7,28.8,N/A,,Mostly Cloudy,330,2013-02-15 23:55:00
6:15 PM,26.6,6.8,43,30.33,10.0,NNW,17.3,23.0,N/A,,Overcast,330,2013-02-16 00:15:00
6:35 PM,26.6,6.8,43,30.33,10.0,NNW,12.7,-,N/A,,Scattered Clouds,330,2013-02-16 00:35:00
6:55 PM,24.8,6.8,46,30.33,10.0,NNW,9.2,-,N/A,,Clear,340,2013-02-16 00:55:00
7:15 PM,24.8,8.6,50,30.33,10.0,NNW,9.2,-,N/A,,Clear,330,2013-02-16 01:15:00
7:35 PM,23.0,8.6,54,30.33,10.0,NNW,5.8,-,N/A,,Clear,340,2013-02-16 01:35:00
7:55 PM,21.2,8.6,58,30.34,10.0,NW,6.9,-,N/A,,Clear,320,2013-02-16 01:55:00
8:15 PM,21.2,8.6,58,30.34,10.0,NW,6.9,-,N/A,,Clear,320,2013-02-16 02:15:00
8:35 PM,19.4,8.6,63,30.34,10.0,NW,6.9,-,N/A,,Clear,320,2013-02-16 02:35:00
8:55 PM,19.4,8.6,63,30.33,10.0,NW,5.8,-,N/A,,Clear,320,2013-02-16 02:55:00
9:15 PM,17.6,8.6,68,30.34,10.0,NNW,4.6,-,N/A,,Clear,340,2013-02-16 03:15:00
9:35 PM,17.6,8.6,68,30.34,10.0,NW,5.8,-,N/A,,Clear,320,2013-02-16 03:35:00
9:55 PM,15.8,8.6,73,30.34,10.0,NW,6.9,-,N/A,,Clear,310,2013-02-16 03:55:00
10:15 PM,15.8,8.6,73,30.34,10.0,NW,6.9,-,N/A,,Clear,320,2013-02-16 04:15:00
10:35 PM,15.8,10.4,79,30.34,10.0,NW,4.6,-,N/A,,Clear,310,2013-02-16 04:35:00
10:55 PM,15.8,8.6,73,30.32,10.0,NW,5.8,-,N/A,,Clear,320,2013-02-16 04:55:00
11:15 PM,15.8,8.6,73,30.31,10.0,NNW,3.5,-,N/A,,Clear,330,2013-02-16 05:15:00
11:35 PM,14.0,8.6,79,30.31,10.0,NNW,3.5,-,N/A,,Clear,330,2013-02-16 05:35:00
11:55 PM,12.2,6.8,79,30.31,10.0,WNW,5.8,-,N/A,,Clear,300,2013-02-16 05:55:00